Home   Weather   Lakeland   Past weeks

Flag for USA Past Weather in Lakeland, Florida, USA — Yesterday and Last 2 Weeks

Now
88 °F

Scattered clouds.


Feels Like: 96 °F
Forecast: 74 / 88 °F
Wind: No wind

Location: Lakeland Regional

Current Time: Sep 26, 2016 at 1:33:06 PM

Latest Report: Sep 26, 2016 at 12:50 PM


Visibility: 10 mi

Pressure: 30.00 "Hg

Humidity: 62%

Dew Point: 73 °F

Location of LakelandLocation

Past Weather in Lakeland — Graph

°F

Lakeland Temperature Yesterday

Maximum temperature yesterday: 91 °F (at 2:50 PM)
Minimum temperature yesterday: 72 °F (at 2:35 AM)
Average temperature yesterday: 78 °F

High & Low Weather Summary for the Past Weeks

 TemperatureHumidityPressure
High91 °F (Sep 11, 4:10 PM)100% (Sep 11, 8:50 PM)30.11 "Hg (Sep 11, 8:50 PM)
Low72 °F (Sep 25, 2:35 AM)49% (Sep 22, 3:50 PM)29.92 "Hg (Sep 13, 4:45 PM)
Average79 °F87%30.01 "Hg
* Reported Sep 11 11:50 AM — Sep 26 11:50 AM, Lakeland, Weather by CustomWeather, © 2016

Note: Actual official high and low records may vary slightly from our data, if they occured in-between our weather recording intervals... More about our weather records

Advertising

Lakeland Weather History for the Previous 24 Hours

Scroll right to see more
 ConditionsComfort  
Time TempWeatherWind HumidityBarometerVisibility
11:50 AM
Mon, Sep 26
84 °FScattered clouds.3 mph74%30.01 "Hg10 mi
10:54 AM84 °FScattered clouds.5 mph74%30.03 "Hg10 mi
9:58 AM82 °FSunny.No wind79%30.02 "Hg10 mi
8:55 AM79 °FPartly sunny.No wind89%30.02 "Hg10 mi
7:54 AM75 °FPartly sunny.No wind94%30.01 "Hg10 mi
6:50 AM75 °FPassing clouds.No wind94%29.99 "Hg10 mi
5:50 AM75 °FClear.No wind94%29.98 "Hg10 mi
5:35 AM75 °FClear.No wind94%29.98 "Hg10 mi
5:15 AM73 °FClear.No wind100%29.97 "Hg10 mi
4:55 AM73 °FClear.No wind100%29.97 "Hg10 mi
4:35 AM73 °FClear.3 mph100%29.98 "Hg10 mi
4:15 AM75 °FClear.No wind94%29.98 "Hg10 mi
3:55 AM75 °FClear.3 mph94%29.98 "Hg10 mi
3:35 AM75 °FPassing clouds.No wind94%29.99 "Hg10 mi
3:15 AM75 °FThundershowers. Passing clouds.No wind94%29.99 "Hg10 mi
2:55 AM75 °FClear.6 mph94%30.00 "Hg10 mi
2:35 AM75 °FPassing clouds.5 mph94%29.99 "Hg10 mi
2:15 AM75 °FPassing clouds.No wind94%29.99 "Hg10 mi
1:55 AM75 °FPassing clouds.No wind94%30.00 "Hg10 mi
1:35 AM75 °FPassing clouds.No wind94%30.00 "Hg10 mi
1:15 AM75 °FClear.No wind94%30.01 "Hg10 mi
12:55 AM75 °FClear.No wind94%30.02 "Hg10 mi
12:35 AM75 °FPassing clouds.No wind94%30.02 "Hg10 mi
12:15 AM77 °FPassing clouds.No wind94%30.03 "Hg10 mi
11:35 PM
Sun, Sep 25
79 °FPartly cloudy.No wind89%30.04 "Hg10 mi
11:15 PM77 °FPartly cloudy.No wind94%30.04 "Hg10 mi
10:55 PM77 °FPartly cloudy.6 mph100%30.03 "Hg10 mi
10:35 PM79 °FThundershowers. Passing clouds.5 mph89%30.03 "Hg10 mi
9:50 PM81 °FScattered showers. Partly cloudy.6 mph84%30.03 "Hg10 mi
6:50 PM84 °FScattered clouds.9 mph100%29.97 "Hg10 mi
5:50 PM86 °FPassing clouds.8 mph62%29.95 "Hg10 mi
4:50 PM91 °FScattered clouds.6 mph49%29.95 "Hg10 mi
3:50 PM91 °FScattered clouds.6 mph52%29.96 "Hg10 mi
2:50 PM91 °FScattered clouds.6 mph52%29.99 "Hg10 mi
1:50 PM88 °FScattered clouds.5 mph59%30.02 "Hg10 mi
Weather by CustomWeather, © 2016

See weather overviewHow to use our weather pages